| time (UTC) | temp F | wind direction | speed knots | gust knots | rain 1hr in | rain 24hr in | rain mn in | humidity % | barometer mb |
| 20260506195042 | 56 | 58 | 3.5 | 10.4 | 0.00 | 0.23 | 0.23 | 89 | 1011.4 |
| 20260506193112 | 56 | 360 | 12.2 | 13.0 | 0.00 | 0.23 | 0.23 | 89 | 1010.1 |
| 20260506192112 | 56 | 79 | 3.5 | 10.4 | 0.00 | 0.23 | 0.23 | 89 | 1011.7 |
| 20260506191112 | 57 | 109 | 6.1 | 10.4 | 0.00 | 0.23 | 0.23 | 90 | 1011.0 |
| 20260506190112 | 56 | 59 | 9.6 | 12.2 | 0.00 | 0.23 | 0.23 | 91 | 1010.8 |
| 20260506185112 | 56 | 74 | 3.5 | 7.8 | 0.00 | 0.23 | 0.23 | 91 | 1011.4 |
| 20260506184112 | 56 | 83 | 4.3 | 9.6 | 0.02 | 0.23 | 0.23 | 91 | 1011.1 |
| 20260506183112 | 56 | 55 | 4.3 | 8.7 | 0.04 | 0.23 | 0.23 | 91 | 1011.0 |
| 20260506182042 | 56 | 46 | 0.9 | 8.7 | 0.08 | 0.23 | 0.23 | 91 | 1012.0 |
| 20260506181112 | 56 | 85 | 4.3 | 9.6 | 0.14 | 0.23 | 0.23 | 91 | 1011.7 |
| 20260506180112 | 56 | 74 | 1.7 | 7.0 | 0.14 | 0.23 | 0.23 | 92 | 1011.6 |
| 20260506175112 | 56 | 74 | 6.1 | 10.4 | 0.14 | 0.23 | 0.23 | 91 | 1011.4 |
| 20260506174042 | 56 | 70 | 5.2 | 7.8 | 0.14 | 0.21 | 0.21 | 91 | 1012.5 |
| 20260506173112 | 56 | 65 | 0.9 | 8.7 | 0.13 | 0.19 | 0.19 | 91 | 1014.2 |
| 20260506170112 | 57 | 69 | 3.5 | 6.1 | 0.07 | 0.09 | 0.09 | 91 | 1013.1 |
| 20260506165042 | 57 | 69 | 4.3 | 7.0 | 0.07 | 0.09 | 0.09 | 91 | 1013.0 |
| 20260506164113 | 57 | 84 | 2.6 | 7.0 | 0.05 | 0.07 | 0.07 | 91 | 1012.5 |
| 20260506163113 | 58 | 77 | 2.6 | 7.0 | 0.05 | 0.06 | 0.06 | 91 | 1013.0 |
| 20260506162042 | 58 | 49 | 1.7 | 9.6 | 0.01 | 0.02 | 0.02 | 92 | 1012.2 |
| 20260506161113 | 58 | 88 | 3.5 | 10.4 | 0.01 | 0.02 | 0.02 | 91 | 1011.9 |
| 20260506160112 | 58 | 57 | 3.5 | 7.0 | 0.01 | 0.02 | 0.02 | 91 | 1012.4 |
| 20260506155112 | 58 | 53 | 3.5 | 7.0 | 0.01 | 0.02 | 0.02 | 91 | 1011.8 |
| 20260506154042 | 59 | 66 | 3.5 | 6.1 | 0.01 | 0.02 | 0.02 | 91 | 1012.3 |
| 20260506153112 | 58 | 61 | 2.6 | 4.3 | 0.01 | 0.01 | 0.01 | 91 | 1012.0 |
| 20260506151042 | 59 | 71 | 0.0 | 4.3 | 0.01 | 0.01 | 0.01 | 91 | 1011.4 |
| 20260506145113 | 58 | 63 | 2.6 | 7.8 | 0.01 | 0.01 | 0.01 | 91 | 1011.1 |
| 20260506144043 | 59 | 67 | 3.5 | 3.5 | 0.01 | 0.01 | 0.01 | 91 | 1011.2 |
| 20260506141042 | 58 | 290 | 0.9 | 3.5 | 0.00 | 0.00 | 0.00 | 91 | 1010.8 |
| 20260506135043 | 58 | 294 | 0.0 | 2.6 | 0.00 | 0.00 | 0.00 | 90 | 1010.8 |
| 20260506134043 | 58 | 294 | 0.9 | 1.7 | 0.00 | 0.00 | 0.00 | 90 | 1010.5 |
| 20260506133043 | 58 | 294 | 0.0 | 2.6 | 0.00 | 0.00 | 0.00 | 90 | 1010.5 |
| 20260506131113 | 58 | 291 | 0.0 | 2.6 | 0.00 | 0.00 | 0.00 | 89 | 1010.5 |
| 20260506130043 | 58 | 292 | 1.7 | 6.1 | 0.00 | 0.00 | 0.00 | 88 | 1010.3 |
| 20260506125043 | 59 | 286 | 0.9 | 3.5 | 0.00 | 0.00 | 0.00 | 87 | 1010.0 |
| 20260506124043 | 59 | 293 | 1.7 | 4.3 | 0.00 | 0.00 | 0.00 | 86 | 1009.9 |
| 20260506123043 | 59 | 291 | 0.0 | 4.3 | 0.00 | 0.00 | 0.00 | 86 | 1009.7 |
| 20260506122043 | 59 | 288 | 1.7 | 3.5 | 0.00 | 0.00 | 0.00 | 86 | 1009.7 |
| 20260506121043 | 59 | 294 | 0.9 | 3.5 | 0.00 | 0.00 | 0.00 | 86 | 1009.4 |
| 20260506120043 | 59 | 322 | 0.0 | 3.5 | 0.00 | 0.00 | 0.00 | 86 | 1009.0 |
| 20260506115043 | 59 | 232 | 1.7 | 2.6 | 0.00 | 0.00 | 0.00 | 86 | 1009.0 |
| 20260506114043 | 59 | 232 | 0.0 | 3.5 | 0.00 | 0.00 | 0.00 | 86 | 1008.6 |
| 20260506112043 | 59 | 299 | 0.0 | 4.3 | 0.00 | 0.00 | 0.00 | 85 | 1008.3 |
| 20260506111043 | 60 | 277 | 1.7 | 3.5 | 0.00 | 0.00 | 0.00 | 84 | 1008.2 |
| 20260506110113 | 60 | 277 | 0.0 | 3.5 | 0.00 | 0.00 | 0.00 | 84 | 1008.0 |
| 20260506105043 | 60 | 277 | 0.9 | 3.5 | 0.00 | 0.00 | 0.00 | 83 | 1007.9 |
| 20260506104043 | 60 | 259 | 0.9 | 6.1 | 0.00 | 0.00 | 0.00 | 84 | 1008.0 |
| 20260506103043 | 60 | 289 | 0.9 | 6.1 | 0.00 | 0.00 | 0.00 | 83 | 1007.5 |
| 20260506102043 | 60 | 222 | 2.6 | 3.5 | 0.00 | 0.00 | 0.00 | 83 | 1007.3 |
| 20260506101043 | 60 | 279 | 0.0 | 3.5 | 0.00 | 0.00 | 0.00 | 83 | 1007.3 |
| 20260506100113 | 60 | 262 | 0.0 | 2.6 | 0.00 | 0.00 | 0.00 | 83 | 1007.1 |
| 20260506095113 | 61 | 294 | 0.0 | 3.5 | 0.00 | 0.00 | 0.00 | 83 | 1007.0 |
| 20260506094113 | 61 | 288 | 0.0 | 4.3 | 0.00 | 0.00 | 0.00 | 83 | 1006.9 |
| 20260506093113 | 61 | 287 | 2.6 | 5.2 | 0.00 | 0.00 | 0.00 | 83 | 1006.8 |
| 20260506092043 | 61 | 215 | 0.9 | 2.6 | 0.00 | 0.00 | 0.00 | 83 | 1006.8 |
| 20260506091043 | 61 | 232 | 0.9 | 3.5 | 0.00 | 0.00 | 0.00 | 83 | 1006.9 |
| 20260506090043 | 61 | 231 | 3.5 | 3.5 | 0.00 | 0.00 | 0.00 | 83 | 1006.7 |
| 20260506085043 | 61 | 231 | 0.0 | 1.7 | 0.00 | 0.00 | 0.00 | 83 | 1006.6 |
| 20260506084043 | 61 | 231 | 0.0 | 2.6 | 0.00 | 0.00 | 0.00 | 83 | 1006.5 |
| 20260506083043 | 61 | 230 | 0.0 | 3.5 | 0.00 | 0.00 | 0.00 | 83 | 1006.2 |
| 20260506082043 | 62 | 284 | 0.9 | 2.6 | 0.00 | 0.00 | 0.00 | 83 | 1006.1 |
| 20260506080113 | 62 | 298 | 0.9 | 4.3 | 0.00 | 0.00 | 0.00 | 83 | 1006.1 |
| 20260506073043 | 62 | 290 | 0.9 | 6.1 | 0.00 | 0.00 | 0.00 | 81 | 1006.4 |
| 20260506072044 | 62 | 282 | 2.6 | 6.1 | 0.00 | 0.00 | 0.00 | 81 | 1006.4 |
| 20260506071043 | 62 | 296 | 0.9 | 3.5 | 0.00 | 0.00 | 0.00 | 81 | 1006.4 |
| 20260506062044 | 65 | 218 | 0.9 | 4.3 | 0.00 | 0.00 | 0.00 | 82 | 1005.4 |
| 20260506061044 | 65 | 283 | 0.9 | 6.1 | 0.00 | 0.00 | 0.00 | 82 | 1005.5 |
| 20260506051043 | 67 | 272 | 0.9 | 6.1 | 0.00 | 0.00 | 0.00 | 84 | 1005.4 |
| 20260506045113 | 68 | 230 | 1.7 | 2.6 | 0.00 | 0.00 | 0.00 | 83 | 1005.2 |
| 20260506044114 | 68 | 291 | 0.0 | 7.0 | 0.00 | 0.00 | 0.00 | 83 | 1005.3 |
| 20260506043114 | 69 | 272 | 0.9 | 6.1 | 0.00 | 0.00 | 0.00 | 83 | 1005.0 |
| 20260506042113 | 69 | 284 | 2.6 | 6.1 | 0.00 | 0.00 | 0.00 | 82 | 1004.8 |
| 20260506041114 | 70 | 211 | 0.9 | 6.1 | 0.00 | 0.00 | 0.00 | 82 | 1005.1 |
| 20260506040113 | 71 | 281 | 2.6 | 6.1 | 0.00 | 0.00 | 0.00 | 82 | 1005.0 |
| 20260506035114 | 72 | 279 | 2.6 | 6.1 | 0.00 | 0.00 | 0.00 | 82 | 1004.4 |
| 20260506034114 | 74 | 223 | 0.0 | 6.1 | 0.00 | 0.00 | 0.00 | 84 | 1004.6 |
| 20260506033113 | 74 | 295 | 2.6 | 4.3 | 0.00 | 0.00 | 0.00 | 89 | 1004.3 |
| 20260506031044 | 73 | 246 | 0.0 | 0.0 | 0.00 | 0.00 | 0.00 | 88 | 1003.2 |
| 20260506030114 | 74 | 246 | 0.0 | 0.9 | 0.00 | 0.00 | 0.00 | 88 | 1003.8 |
| 20260506025114 | 74 | 246 | 0.0 | 0.0 | 0.00 | 0.00 | 0.00 | 88 | 1003.6 |
| 20260506024044 | 74 | 246 | 0.0 | 0.0 | 0.00 | 0.00 | 0.00 | 88 | 1003.6 |
| 20260506023044 | 74 | 246 | 0.0 | 0.9 | 0.00 | 0.00 | 0.00 | 88 | 1003.5 |
| 20260506022114 | 75 | 246 | 0.0 | 0.9 | 0.00 | 0.00 | 0.00 | 87 | 1002.6 |
| 20260506021044 | 75 | 246 | 0.0 | 0.9 | 0.00 | 0.00 | 0.00 | 87 | 1003.0 |
| 20260506020114 | 75 | 246 | 0.0 | 0.9 | 0.00 | 0.00 | 0.00 | 86 | 1002.9 |
| 20260506015114 | 75 | 246 | 0.0 | 1.7 | 0.00 | 0.00 | 0.00 | 86 | 1002.9 |
| 20260506013044 | 76 | 246 | 0.0 | 0.9 | 0.00 | 0.00 | 0.00 | 86 | 1002.7 |
| 20260506012114 | 76 | 246 | 0.0 | 0.9 | 0.00 | 0.00 | 0.00 | 86 | 1002.5 |
| 20260506011044 | 76 | 246 | 0.0 | 1.7 | 0.00 | 0.00 | 0.00 | 85 | 1002.6 |
| 20260506010114 | 76 | 246 | 0.0 | 1.7 | 0.00 | 0.00 | 0.00 | 85 | 1002.5 |
| 20260506005114 | 77 | 246 | 0.0 | 0.0 | 0.00 | 0.00 | 0.00 | 85 | 1002.2 |
| 20260506002044 | 78 | 248 | 0.0 | 0.0 | 0.00 | 0.00 | 0.00 | 83 | 1002.2 |
| 20260506001114 | 79 | 248 | 0.0 | 1.7 | 0.00 | 0.00 | 0.00 | 82 | 1002.2 |
| 20260505235044 | 80 | 219 | 0.0 | 0.9 | 0.00 | 0.00 | 0.00 | 81 | 1002.4 |
| 20260505234044 | 80 | 219 | 0.9 | 2.6 | 0.00 | 0.00 | 0.00 | 79 | 1002.5 |
| 20260505233044 | 80 | 219 | 0.9 | 4.3 | 0.00 | 0.00 | 0.00 | 77 | 1002.5 |
| 20260505232044 | 81 | 189 | 0.9 | 4.3 | 0.00 | 0.00 | 0.00 | 76 | 1002.2 |
| 20260505231114 | 81 | 207 | 0.0 | 5.2 | 0.00 | 0.00 | 0.00 | 76 | 1002.0 |
| 20260505225114 | 81 | 216 | 0.0 | 4.3 | 0.00 | 0.00 | 0.00 | 75 | 1002.1 |
| 20260505224044 | 81 | 242 | 1.7 | 5.2 | 0.00 | 0.00 | 0.00 | 75 | 1002.1 |
| 20260505223044 | 81 | 209 | 1.7 | 5.2 | 0.00 | 0.00 | 0.00 | 74 | 1002.1 |
| 20260505221114 | 82 | 251 | 3.5 | 4.3 | 0.00 | 0.00 | 0.00 | 76 | 1002.3 |
| 20260505220044 | 82 | 238 | 0.9 | 7.0 | 0.00 | 0.00 | 0.00 | 74 | 1002.2 |
| 20260505215114 | 82 | 242 | 0.9 | 5.2 | 0.00 | 0.00 | 0.00 | 74 | 1002.1 |
| 20260505214045 | 82 | 217 | 0.9 | 5.2 | 0.00 | 0.00 | 0.00 | 75 | 1002.4 |
| 20260505213044 | 82 | 160 | 4.3 | 7.8 | 0.00 | 0.00 | 0.00 | 74 | 1002.6 |
| 20260505212044 | 81 | 235 | 2.6 | 7.0 | 0.00 | 0.00 | 0.00 | 74 | 1002.7 |
| 20260505211044 | 81 | 210 | 0.9 | 5.2 | 0.00 | 0.00 | 0.00 | 74 | 1002.8 |
| 20260505210044 | 81 | 215 | 0.0 | 7.8 | 0.00 | 0.00 | 0.00 | 74 | 1002.9 |
| 20260505205044 | 82 | 216 | 3.5 | 9.6 | 0.00 | 0.00 | 0.00 | 73 | 1002.6 |
| 20260505204044 | 81 | 234 | 0.9 | 7.8 | 0.00 | 0.00 | 0.00 | 74 | 1002.8 |
| 20260505203044 | 80 | 252 | 0.9 | 7.8 | 0.00 | 0.00 | 0.00 | 75 | 1002.8 |
| 20260505202114 | 80 | 217 | 3.5 | 7.8 | 0.00 | 0.00 | 0.00 | 73 | 1002.6 |
| 20260505201044 | 81 | 217 | 0.9 | 8.7 | 0.00 | 0.00 | 0.00 | 73 | 1002.8 |
| 20260505200115 | 81 | 240 | 7.0 | 10.4 | 0.00 | 0.00 | 0.00 | 73 | 1002.7 |